When you browse on this site, cookies collect data to enhance your experience and personalize the content and advertising you see.
Visit our Privacy Policy to learn more. By continuing to use the site, you agree to this use of cookies and data.
EN

Hourly Weather Gorlovo

Today, 21 September, Monday

Time Temperature Precipitation Wind Pressure Humidity
00:00 +5°C° 0 mm 4 mps 749 mmHg 81%
01:00 +5°C° 0 mm 4 mps 749 mmHg 84%
02:00 +5°C° 0 mm 4 mps 749 mmHg 88%
03:00 +6°C° 0 mm 4 mps 748 mmHg 86%
04:00 +6°C° 0 mm 5 mps 748 mmHg 84%
05:00 +7°C° 0 mm 5 mps 748 mmHg 83%
06:00 +7°C° 0 mm 5 mps 747 mmHg 82%
07:00 +8°C° 0 mm 5 mps 747 mmHg 80%
08:00 +8°C° 0 mm 6 mps 747 mmHg 79%
09:00 +9°C° 0 mm 6 mps 747 mmHg 78%
10:00 +10°C° 0 mm 6 mps 747 mmHg 76%
11:00 +11°C° 0 mm 6 mps 746 mmHg 75%
12:00 +12°C° 0 mm 5 mps 747 mmHg 75%
13:00 +13°C° 0 mm 5 mps 747 mmHg 74%
14:00 +13°C° 0 mm 4 mps 747 mmHg 74%
15:00 +13°C° 0 mm 4 mps 747 mmHg 76%
16:00 +12°C° 0 mm 4 mps 747 mmHg 78%
17:00 +12°C° 0 mm 4 mps 747 mmHg 80%
18:00 +11°C° 0 mm 4 mps 747 mmHg 83%
19:00 +11°C° 0 mm 4 mps 748 mmHg 85%
20:00 +10°C° 0 mm 4 mps 748 mmHg 88%
21:00 +10°C° 0 mm 4 mps 747 mmHg 89%
22:00 +10°C° 0 mm 4 mps 747 mmHg 91%
23:00 +10°C° 0 mm 3 mps 747 mmHg 92%

Tomorrow, 22 September, Tuesday

Time Temperature Precipitation Wind Pressure Humidity
00:00 +10°C° 0 mm 4 mps 747 mmHg 92%
01:00 +10°C° 0 mm 4 mps 747 mmHg 92%
02:00 +10°C° 0 mm 4 mps 747 mmHg 92%
03:00 +10°C° 0 mm 4 mps 746 mmHg 92%
04:00 +10°C° 0 mm 5 mps 746 mmHg 92%
05:00 +10°C° 0 mm 5 mps 745 mmHg 92%
06:00 +10°C° 0 mm 5 mps 745 mmHg 89%
07:00 +11°C° 0 mm 6 mps 745 mmHg 85%
08:00 +13°C° 0 mm 6 mps 745 mmHg 82%
09:00 +14°C° 0 mm 6 mps 745 mmHg 77%
10:00 +15°C° 0 mm 6 mps 745 mmHg 71%
11:00 +16°C° 0 mm 7 mps 745 mmHg 66%
12:00 +16°C° 0 mm 7 mps 745 mmHg 64%
13:00 +17°C° 0 mm 7 mps 745 mmHg 61%
14:00 +17°C° 0 mm 7 mps 745 mmHg 59%
15:00 +17°C° 0 mm 6 mps 745 mmHg 62%
16:00 +16°C° 0 mm 5 mps 745 mmHg 65%
17:00 +15°C° 0 mm 4 mps 745 mmHg 68%
18:00 +14°C° 0 mm 4 mps 746 mmHg 71%
19:00 +13°C° 0 mm 4 mps 746 mmHg 73%
20:00 +12°C° 0 mm 4 mps 746 mmHg 75%
21:00 +12°C° 0 mm 4 mps 746 mmHg 76%
22:00 +11°C° 0 mm 4 mps 747 mmHg 78%
23:00 +11°C° 0 mm 4 mps 747 mmHg 79%

Day after tomorrow, 23 September, Wednesday

Time Temperature Precipitation Wind Pressure Humidity
00:00 +10°C° 0 mm 4 mps 747 mmHg 82%
01:00 +10°C° 0 mm 3 mps 747 mmHg 85%
02:00 +9°C° 0 mm 3 mps 748 mmHg 89%
03:00 +9°C° 0 mm 3 mps 748 mmHg 91%
04:00 +8°C° 0 mm 2 mps 748 mmHg 93%
05:00 +8°C° 0 mm 2 mps 749 mmHg 95%
06:00 +9°C° 0 mm 2 mps 749 mmHg 90%
07:00 +10°C° 0 mm 2 mps 749 mmHg 84%
08:00 +13°C° 0 mm 2 mps 749 mmHg 79%
09:00 +14°C° 0 mm 2 mps 749 mmHg 73%
10:00 +16°C° 0 mm 2 mps 749 mmHg 67%
11:00 +18°C° 0 mm 2 mps 749 mmHg 62%
12:00 +19°C° 0 mm 3 mps 749 mmHg 61%
13:00 +19°C° 0 mm 3 mps 749 mmHg 61%
14:00 +20°C° 0 mm 3 mps 749 mmHg 60%
15:00 +19°C° 0 mm 3 mps 749 mmHg 67%
16:00 +17°C° 0 mm 2 mps 749 mmHg 74%
17:00 +16°C° 0 mm 2 mps 749 mmHg 81%
18:00 +15°C° 0 mm 2 mps 749 mmHg 85%
19:00 +14°C° 0 mm 2 mps 749 mmHg 89%
20:00 +14°C° 0 mm 2 mps 749 mmHg 93%
21:00 +13°C° 0 mm 2 mps 749 mmHg 93%
22:00 +13°C° 0 mm 2 mps 749 mmHg 94%
23:00 +13°C° 0 mm 2 mps 749 mmHg 95%

24 September, Thursday

Time Temperature Precipitation Wind Pressure Humidity
00:00 +13°C° 0 mm 2 mps 749 mmHg 95%
01:00 +12°C° 0 mm 2 mps 749 mmHg 95%
02:00 +12°C° 0 mm 2 mps 749 mmHg 95%
03:00 +12°C° 0 mm 2 mps 749 mmHg 95%
04:00 +10°C° 0 mm 2 mps 749 mmHg 95%
05:00 +10°C° 0 mm 2 mps 749 mmHg 95%
06:00 +11°C° 0 mm 3 mps 750 mmHg 89%
07:00 +12°C° 0 mm 3 mps 750 mmHg 83%
08:00 +13°C° 0 mm 3 mps 750 mmHg 77%
09:00 +16°C° 0 mm 3 mps 750 mmHg 72%
10:00 +17°C° 0 mm 3 mps 750 mmHg 66%
11:00 +19°C° 0 mm 3 mps 751 mmHg 60%
12:00 +20°C° 0 mm 3 mps 751 mmHg 57%
13:00 +20°C° 0 mm 3 mps 751 mmHg 55%
14:00 +21°C° 0 mm 3 mps 751 mmHg 52%
15:00 +19°C° 0 mm 3 mps 751 mmHg 59%
16:00 +18°C° 0 mm 2 mps 751 mmHg 65%
17:00 +16°C° 0 mm 2 mps 751 mmHg 72%
18:00 +15°C° 0 mm 2 mps 751 mmHg 74%
19:00 +14°C° 0 mm 2 mps 751 mmHg 77%
20:00 +13°C° 0 mm 2 mps 751 mmHg 80%
21:00 +13°C° 0 mm 2 mps 751 mmHg 82%
22:00 +12°C° 0 mm 2 mps 752 mmHg 84%
23:00 +12°C° 0 mm 2 mps 752 mmHg 86%

25 September, Friday

Time Temperature Precipitation Wind Pressure Humidity
00:00 +12°C° 0 mm 2 mps 752 mmHg 87%
01:00 +10°C° 0 mm 2 mps 752 mmHg 88%
02:00 +10°C° 0 mm 2 mps 752 mmHg 89%
03:00 +10°C° 0 mm 2 mps 752 mmHg 90%
04:00 +10°C° 0 mm 2 mps 752 mmHg 91%
05:00 +10°C° 0 mm 2 mps 752 mmHg 92%
06:00 +12°C° 0 mm 2 mps 752 mmHg 87%
07:00 +13°C° 0 mm 2 mps 753 mmHg 82%
08:00 +14°C° 0 mm 2 mps 753 mmHg 77%
09:00 +16°C° 0 mm 2 mps 753 mmHg 72%
10:00 +18°C° 0 mm 3 mps 753 mmHg 66%
11:00 +19°C° 0 mm 3 mps 753 mmHg 61%
12:00 +20°C° 0 mm 3 mps 753 mmHg 58%
13:00 +21°C° 0 mm 3 mps 753 mmHg 56%
14:00 +21°C° 0 mm 3 mps 753 mmHg 53%
15:00 +20°C° 0 mm 2 mps 753 mmHg 60%
16:00 +18°C° 0 mm 2 mps 753 mmHg 66%
17:00 +17°C° 0 mm 2 mps 753 mmHg 73%
18:00 +16°C° 0 mm 2 mps 753 mmHg 76%
19:00 +15°C° 0 mm 2 mps 753 mmHg 79%
20:00 +14°C° 0 mm 2 mps 753 mmHg 82%
21:00 +13°C° 0 mm 2 mps 753 mmHg 84%
22:00 +13°C° 0 mm 2 mps 753 mmHg 86%
23:00 +12°C° 0 mm 2 mps 753 mmHg 88%

26 September, Saturday

Time Temperature Precipitation Wind Pressure Humidity
00:00 +12°C° 0 mm 2 mps 753 mmHg 90%
01:00 +12°C° 0 mm 2 mps 753 mmHg 91%
02:00 +12°C° 0 mm 2 mps 753 mmHg 93%
03:00 +12°C° 0 mm 2 mps 753 mmHg 93%
04:00 +10°C° 0 mm 2 mps 753 mmHg 94%
05:00 +10°C° 0 mm 2 mps 753 mmHg 94%
06:00 +12°C° 0 mm 2 mps 753 mmHg 89%
07:00 +13°C° 0 mm 3 mps 754 mmHg 83%
08:00 +14°C° 0 mm 3 mps 754 mmHg 78%
09:00 +17°C° 0 mm 3 mps 754 mmHg 72%
10:00 +18°C° 0 mm 3 mps 754 mmHg 66%
11:00 +20°C° 0 mm 3 mps 754 mmHg 61%
12:00 +21°C° 0 mm 3 mps 754 mmHg 58%
13:00 +21°C° 0 mm 4 mps 754 mmHg 56%
14:00 +22°C° 0 mm 4 mps 754 mmHg 54%
15:00 +20°C° 0 mm 4 mps 754 mmHg 60%
16:00 +19°C° 0 mm 3 mps 754 mmHg 67%
17:00 +17°C° 0 mm 3 mps 754 mmHg 73%
18:00 +17°C° 0 mm 3 mps 755 mmHg 75%
19:00 +16°C° 0 mm 3 mps 755 mmHg 77%
20:00 +14°C° 0 mm 3 mps 755 mmHg 78%
21:00 +14°C° 0 mm 3 mps 755 mmHg 79%
22:00 +13°C° 0 mm 3 mps 756 mmHg 79%
23:00 +12°C° 0 mm 3 mps 756 mmHg 80%
Show more